Weather History for KSUW - February, 2013

Change the Weather History Date:

Tuesday, February 12, 2013

  Actual Average (KDLH) Record (KDLH)
Temperature  
Mean Temperature 21 °F 14 °F  
Max Temperature 32 °F 23 °F 45 °F (1976)
Min Temperature 10 °F 5 °F -33 °F (1875)
Degree Days  
Heating Degree Days 44 51  
Month to date heating degree days 630  
Since 1 July heating degree days 6098  
Cooling Degree Days 0 0  
Month to date cooling degree days 0  
Year to date cooling degree days 0  
Moisture  
Dew Point 16 °F    
Average Humidity 74    
Maximum Humidity 90    
Minimum Humidity 59    
Precipitation  
Precipitation 0.00 in 0.02 in 0.37 in (1922)
Month to date precipitation 0.28  
Year to date precipitation 1.24  
Snow  
Snow 0.00 in 0.40 in 2.60 in (1994)
Month to date snowfall 4.9  
Since 1 July snowfall 58.1  
Snow Depth -    
Sea Level Pressure  
Sea Level Pressure 29.84 in    
Wind  
Wind Speed 8 mph (WSW)    
Max Wind Speed 16 mph    
Max Gust Speed 20 mph    
Visibility 10 miles    
Events Snow    
T = Trace of Precipitation, MM = Missing Value Source: NWS Daily Summary

Daily Weather History Graph

Daily Weather History Graph

Search for Another Location

Airport or City:

Trip Planner

Search our weather history database for the weather conditions in past years. The results will help you decide how hot, cold, wet, or windy it might be!

Date:

Astronomy

Feb. 12, 2013 Rise Set
Actual Time 7:16 AM CST 5:29 PM CST
Civil Twilight 6:45 AM CST 6:00 PM CST
Nautical Twilight 6:09 AM CST 6:36 PM CST
Astronomical Twilight 5:34 AM CST 7:11 PM CST
Moon 8:01 AM CST (2/12) 8:45 PM CST (2/12)
Length of Visible Light 11h 15m
Length of Day
10h 12m
Waxing Crescent, 7% of the Moon is Illuminated
Feb 12
Waxing Crescent
Feb 17
First Quarter
Feb 25
Full
Mar 4
Last Quarter
Mar 11
New

Hourly Weather History & Observations

Time (CST) Temp. Windchill Dew Point Humidity Pressure Visibility Wind Dir Wind Speed Gust Speed Precip Events Conditions
12:15 AM 21.2 °F 14.9 °F 15.8 °F 80% 29.95 in 10.0 mi WSW 4.6 mph - N/A   Overcast
12:35 AM 20.8 °F 13.2 °F 15.8 °F 81% 29.95 in 10.0 mi West 5.8 mph - N/A   Overcast
12:55 AM 21.0 °F 13.4 °F 15.8 °F 80% 29.95 in 10.0 mi West 5.8 mph - N/A   Overcast
1:15 AM 20.8 °F 11.2 °F 15.8 °F 81% 29.95 in 10.0 mi WSW 8.1 mph - N/A   Overcast
1:35 AM 20.7 °F 11.0 °F 15.4 °F 80% 29.94 in 10.0 mi West 8.1 mph - N/A   Overcast
1:55 AM 20.5 °F 10.0 °F 15.4 °F 81% 29.94 in 10.0 mi West 9.2 mph - N/A   Overcast
2:15 AM 20.3 °F 10.6 °F 15.3 °F 81% 29.94 in 10.0 mi West 8.1 mph - N/A   Overcast
2:35 AM 20.1 °F 11.3 °F 14.9 °F 80% 29.94 in 10.0 mi West 6.9 mph - N/A   Overcast
2:55 AM 19.2 °F 9.3 °F 14.0 °F 80% 29.93 in 10.0 mi West 8.1 mph - N/A   Overcast
3:15 AM 17.6 °F 8.2 °F 12.9 °F 82% 29.93 in 10.0 mi WSW 6.9 mph - N/A   Scattered Clouds
3:35 AM 16.5 °F 6.0 °F 12.0 °F 82% 29.93 in 10.0 mi WSW 8.1 mph - N/A   Clear
3:55 AM 15.8 °F 4.2 °F 10.9 °F 81% 29.94 in 10.0 mi West 9.2 mph - N/A   Clear
4:15 AM 14.0 °F 6.5 °F 10.0 °F 84% 29.94 in 10.0 mi SW 4.6 mph - N/A   Clear
4:35 AM 13.1 °F 2.8 °F 9.5 °F 86% 29.95 in 10.0 mi WSW 6.9 mph - N/A   Clear
4:55 AM 12.4 °F 2.0 °F 9.1 °F 87% 29.96 in 10.0 mi WSW 6.9 mph - N/A   Clear
5:15 AM 11.5 °F 0.9 °F 8.6 °F 88% 29.96 in 10.0 mi SW 6.9 mph - N/A   Clear
5:35 AM 10.4 °F -0.4 °F 7.9 °F 90% 29.96 in 10.0 mi SW 6.9 mph - N/A   Scattered Clouds
5:55 AM 11.5 °F 0.9 °F 8.6 °F 88% 29.96 in 10.0 mi SW 6.9 mph - N/A   Mostly Cloudy
6:15 AM 12.0 °F 1.5 °F 8.6 °F 86% 29.96 in 10.0 mi WSW 6.9 mph - N/A   Overcast
6:35 AM 12.2 °F 1.7 °F 9.0 °F 87% 29.96 in 10.0 mi WSW 6.9 mph - N/A Snow Light Snow
6:55 AM 12.4 °F 3.1 °F 8.8 °F 85% 29.95 in 10.0 mi SW 5.8 mph - N/A Snow Light Snow
7:15 AM 12.9 °F 2.6 °F 9.3 °F 86% 29.94 in 10.0 mi SSW 6.9 mph - N/A Snow Light Snow
7:35 AM 13.5 °F 4.4 °F 9.9 °F 86% 29.93 in 10.0 mi South 5.8 mph - N/A Snow Light Snow
7:55 AM 14.4 °F 6.9 °F 10.4 °F 84% 29.93 in 10.0 mi SSW 4.6 mph - N/A   Overcast
8:15 AM 14.7 °F - 10.9 °F 85% 29.92 in 10.0 mi Calm Calm - N/A   Overcast
8:35 AM 14.9 °F 9.2 °F 11.1 °F 85% 29.92 in 10.0 mi WNW 3.5 mph - N/A   Overcast
8:55 AM 15.4 °F - 11.3 °F 84% 29.91 in 10.0 mi Calm Calm - N/A   Overcast
9:15 AM 16.2 °F - 11.7 °F 82% 29.91 in 10.0 mi Calm Calm - N/A   Overcast
9:35 AM 18.1 °F 11.3 °F 13.5 °F 82% 29.89 in 10.0 mi SW 4.6 mph - N/A   Overcast
9:55 AM 21.2 °F 10.9 °F 15.4 °F 78% 29.89 in 10.0 mi SW 9.2 mph - N/A   Overcast
10:15 AM 21.4 °F 7.5 °F 15.4 °F 78% 29.88 in 10.0 mi SW 16.1 mph 19.6 mph N/A   Overcast
10:35 AM 21.9 °F 8.7 °F 15.4 °F 76% 29.87 in 10.0 mi SW 15.0 mph - N/A   Scattered Clouds
10:55 AM 23.2 °F 13.3 °F 15.8 °F 73% 29.87 in 10.0 mi SW 9.2 mph - N/A   Clear
11:15 AM 24.3 °F 13.3 °F 16.3 °F 72% 29.86 in 10.0 mi SW 11.5 mph - N/A   Scattered Clouds
11:35 AM 26.1 °F 15.6 °F 16.9 °F 68% 29.86 in 10.0 mi SW 11.5 mph - N/A   Mostly Cloudy
11:55 AM 26.6 °F 15.2 °F 17.4 °F 68% 29.84 in 10.0 mi WSW 13.8 mph 18.4 mph N/A   Overcast
12:15 PM 27.9 °F 16.8 °F 17.6 °F 65% 29.83 in 10.0 mi WSW 13.8 mph 18.4 mph N/A   Scattered Clouds
12:35 PM 28.2 °F 16.8 °F 17.8 °F 65% 29.81 in 10.0 mi WSW 15.0 mph - N/A   Mostly Cloudy
12:55 PM 28.4 °F 17.5 °F 18.3 °F 66% 29.79 in 10.0 mi SW 13.8 mph 18.4 mph N/A   Overcast
1:15 PM 29.3 °F 18.6 °F 19.0 °F 66% 29.78 in 10.0 mi SW 13.8 mph - N/A   Overcast
1:35 PM 30.2 °F 20.8 °F 18.9 °F 63% 29.77 in 10.0 mi SW 11.5 mph 17.3 mph N/A   Scattered Clouds
1:55 PM 31.1 °F 22.4 °F 19.4 °F 62% 29.77 in 10.0 mi WSW 10.4 mph - N/A   Clear
2:15 PM 31.6 °F 22.1 °F 19.2 °F 60% 29.76 in 10.0 mi SW 12.7 mph 16.1 mph N/A   Clear
2:35 PM 31.8 °F 23.9 °F 19.2 °F 60% 29.76 in 10.0 mi WSW 9.2 mph - N/A   Clear
2:55 PM 32.0 °F 22.5 °F 19.2 °F 59% 29.76 in 10.0 mi SW 12.7 mph - N/A   Clear
3:15 PM 32.0 °F 23.6 °F 19.4 °F 60% 29.76 in 10.0 mi WSW 10.4 mph 16.1 mph N/A   Clear
3:35 PM 32.0 °F 24.2 °F 19.2 °F 59% 29.76 in 10.0 mi WSW 9.2 mph - N/A   Clear
3:55 PM 32.0 °F 22.5 °F 19.2 °F 59% 29.76 in 10.0 mi WSW 12.7 mph 18.4 mph N/A   Clear
4:15 PM 32.0 °F 22.5 °F 19.2 °F 59% 29.77 in 10.0 mi West 12.7 mph - N/A   Clear
4:35 PM 32.0 °F 23.0 °F 19.0 °F 59% 29.77 in 10.0 mi WSW 11.5 mph - N/A   Clear
4:55 PM 31.5 °F 23.5 °F 19.2 °F 61% 29.76 in 10.0 mi WSW 9.2 mph - N/A   Clear
5:15 PM 30.6 °F 22.4 °F 18.7 °F 61% 29.76 in 10.0 mi WSW 9.2 mph - N/A   Clear
5:35 PM 30.2 °F 21.3 °F 19.0 °F 63% 29.76 in 10.0 mi SW 10.4 mph - N/A   Mostly Cloudy
5:55 PM 29.8 °F 22.2 °F 18.9 °F 64% 29.76 in 10.0 mi WSW 8.1 mph - N/A   Mostly Cloudy
6:15 PM 28.4 °F 22.2 °F 18.5 °F 66% 29.76 in 10.0 mi WSW 5.8 mph - N/A   Scattered Clouds
6:35 PM 27.5 °F 21.1 °F 18.1 °F 68% 29.76 in 10.0 mi WSW 5.8 mph - N/A   Clear
6:55 PM 26.6 °F 19.1 °F 17.6 °F 69% 29.76 in 10.0 mi SW 6.9 mph - N/A   Scattered Clouds
7:15 PM 27.3 °F 19.9 °F 18.5 °F 69% 29.76 in 10.0 mi SW 6.9 mph - N/A   Mostly Cloudy
7:35 PM 27.9 °F 19.8 °F 18.9 °F 69% 29.75 in 10.0 mi SW 8.1 mph - N/A   Overcast
8:15 PM 27.7 °F 18.8 °F 18.7 °F 69% 29.74 in 10.0 mi SW 9.2 mph - N/A   Mostly Cloudy
8:35 PM 27.9 °F 18.4 °F 18.7 °F 68% 29.74 in 10.0 mi SW 10.4 mph - N/A   Overcast
8:55 PM 27.1 °F 18.2 °F 18.7 °F 70% 29.74 in 10.0 mi SW 9.2 mph - N/A   Mostly Cloudy
9:15 PM 26.8 °F 18.5 °F 18.5 °F 71% 29.73 in 10.0 mi SW 8.1 mph - N/A   Mostly Cloudy
9:35 PM 26.6 °F 19.1 °F 18.5 °F 71% 29.73 in 10.0 mi SW 6.9 mph - N/A   Mostly Cloudy
9:55 PM 25.7 °F 16.4 °F 18.1 °F 73% 29.72 in 10.0 mi SSW 9.2 mph - N/A   Overcast
10:15 PM 26.6 °F 18.2 °F 18.5 °F 71% 29.72 in 10.0 mi SW 8.1 mph - N/A   Overcast
10:35 PM 26.4 °F 18.0 °F 18.5 °F 72% 29.72 in 10.0 mi SW 8.1 mph - N/A   Overcast
10:55 PM 26.6 °F 17.5 °F 18.9 °F 73% 29.72 in 10.0 mi SW 9.2 mph - N/A   Overcast
11:15 PM 27.0 °F 16.7 °F 18.9 °F 72% 29.71 in 10.0 mi WSW 11.5 mph - N/A   Overcast
11:35 PM 26.6 °F 16.8 °F 18.9 °F 73% 29.71 in 10.0 mi WSW 10.4 mph - N/A   Overcast
11:55 PM 26.8 °F 17.1 °F 19.2 °F 73% 29.71 in 10.0 mi WSW 10.4 mph - N/A   Overcast